Regional Weather Roundup
Issued by NWS Newport/Morehead, NC

Current Version | Previous Version | Text Only | Print | Product List | Glossary Off
Versions: 1 2 3 4 5 6 7 8 9 10 11 12 13 14 15 16 17 18 19 20 21 22 23 24 25 26 27 28 29 30 31 32 33 34 35 36 37 38 39 40 41 42 43 44 45 46 47 48 49 50
000 ASUS42 KMHX 300722 RWRMHX WEATHER ROUNDUP FOR EASTERN NORTH CAROLINA NATIONAL WEATHER SERVICE NEWPORT/MOREHEAD CITY NC 300 AM EDT WED JUL 30 2014 NOTE: "FAIR" INDICATES FEW OR NO CLOUDS BELOW 12,000 FEET WITH NO SIGNIFICANT WEATHER AND/OR OBSTRUCTIONS TO VISIBILITY NCZ015>017-031-032-045>047-102-103-300800- NORTH COAST CITY SKY/WX TMP DP RH WIND PRES REMARKS EDENTON CLEAR 65 63 93 CALM 29.98S ELIZABETH CITY CLEAR 64 62 93 CALM 29.98F KITTY HAWK SUNNY 72 59 64 CALM 29.97S MANTEO NOT AVBL $$ NCZ045>047-081-094-103-104-300800- CENTRAL COAST CITY SKY/WX TMP DP RH WIND PRES REMARKS FRISCO MOCLDY 73 65 75 NE7 29.96F SWANQUARTER N/A 70 N/A N/A NE3 29.94S $$ NCZ095-097-098-100-101-300800- SOUTHERN COAST CITY SKY/WX TMP DP RH WIND PRES REMARKS BEAUFORT MOCLDY 74 66 76 NE5 29.96F CEDAR ISLAND N/A 77 N/A N/A NE7G15 30.00S JACKSONVILLE CLEAR 73 68 84 NE6 29.97S NEWPORT NOT AVBL PINEY ISLAND PTSUNNY 77 66 68 NE9 29.96F WILMINGTON CLEAR 69 68 96 NE3 29.96S $$ NCZ011>013-027>030-043-044-078>080-089-090>093-098-300800- COASTAL PLAIN CITY SKY/WX TMP DP RH WIND PRES REMARKS AHOSKIE CLEAR 60 58 93 CALM 30.00R CLINTON CLEAR 66 63 90 CALM 29.98S ELIZABETHTOWN CLEAR 67 63 88 CALM 29.97F GOLDSBORO CLEAR 65 64 97 SE1 29.97R GREENVILLE CLEAR 66 64 94 CALM 30.01R HAVELOCK MOCLDY 70 67 90 CALM 29.98S KENANSVILLE CLEAR 63 61 94 CALM 29.99S KINSTON CLEAR 65 64 93 CALM 29.99S NEW BERN CLEAR 72 65 78 NE3 29.99S RICHLANDS CLEAR 64 61 88 CALM 29.98S ROANOKE RAPIDS NOT AVBL ROCKY MOUNT CLEAR 61 59 93 CALM 29.99S WASHINGTON CLEAR 65 63 93 CALM 29.99S WHITEVILLE CLEAR 68 65 92 CALM 29.96F $$ AMZ130-135-150-152-154-156-158-170-250-252-270-ANZ085-086-088-633-658-670-300800- MARINE OBSERVATIONS STATION/POSITION TIME TEMP WIND PRES WAVE SWELL AIR SEA DIR/SP/G HT/PER HT/PER (UTC) (F) (DEG/KT/KT) (MB) (FT/S) (FT/S) CHESAPEAKE LIGHT NOT AVBL BUOY 44014 0700 75 78 360/ 8/ 10 1014.7 2/ 7 2/ 7 DUCK 0700 74 75 60/ 7/ 8 1014.4 2E DUCK 0700 N/A 2/15 OREGON INLET 0700 74 79 40/ 7/ 10 1015.0 BUOY 44095 0700 78 N/A 3/ 8 20E OREGON INLET NOT AVBL HATTERAS CG 0700 75 80 40/ 7/ 10 1015.0 DIAMOND BUOY 0700 VRB 14/ 17 1014.1 4/ 8 2/ 8 CAPE LOOKOUT 0700 77 50/ 13/ 14 1014.4 BEAUFORT LAB 0700 74 82 40/ 3/ 5 1014.2 30 SE NEW RIVER 0700 79 81 70/ 12/ 14 1014.5 4/ 6 2/ 6 5 SE WRIGHTSVILL 0600 74 81 90/ 12/ 14 N/A BUOY 41002 0605 81 80 220/ 16/ 19 1013.3 6/ 6 2/ 9 BUOY 41004 0700 81 84 70/ 8/ 8 1013.2 2/ 8 2/ 8 $$

USA.gov is the U.S. government's official web portal to all federal, state and local government web resources and services.